Wind_Speed
106 108 109 111 108 108 108 108 105 96 86 80 76 73 60 57 51 43 44 50 61 71 77 82 84 86 84 84 86 89 90 92 88 84 82 81 78 80 79 81 82 78 78 77 79 77 76
109 110 110 113 109 109 109 109 104 96 87 81 77 72 72 58 54 49 43 50 57 66 76 80 84 84 84 82 82 84 90 91 92 90 86 82 80 78 80 77 75 76 76 74 76 76 74
110 111 112 112 111 113 111 110 103 96 89 83 75 69 66 67 56 53 47 46 55 61 72 80 82 85 88 85 84 83 84 88 89 90 91 89 83 80 78 77 75 72 73 74 75 76 73
111 113 114 113 113 115 112 112 104 99 94 86 76 65 59 56 60 46 50 46 48 59 66 75 81 84 92 88 89 84 84 86 86 89 91 91 92 86 79 77 74 74 72 72 76 73 73
114 117 118 115 116 118 114 112 105 100 93 85 76 67 59 52 48 45 43 47 46 54 62 71 79 82 93 93 92 87 82 82 85 86 87 90 91 88 84 79 74 73 74 77 77 75 74
114 116 118 117 120 120 115 112 107 103 94 83 74 66 54 44 39 38 35 45 47 49 60 65 71 80 87 96 99 93 85 80 80 79 80 85 86 84 85 84 83 82 77 73 76 77 75
114 118 116 117 121 119 116 113 109 105 93 83 74 61 47 40 35 29 27 41 50 52 54 53 62 71 85 90 96 97 90 83 83 79 79 77 77 81 84 86 87 85 82 80 80 79 76
115 118 117 118 121 120 116 113 110 104 92 83 73 58 49 39 33 28 27 36 47 48 46 54 59 65 75 80 91 93 88 89 86 83 79 78 75 74 84 84 83 82 85 87 88 87 82
115 118 118 119 121 121 116 112 109 102 91 84 71 60 48 36 25 21 22 30 44 46 49 54 57 59 66 72 81 87 89 89 91 85 77 73 74 74 76 75 77 78 80 84 87 88 87
116 118 119 121 121 121 116 113 109 97 90 82 68 58 45 32 19 13 20 30 40 44 51 52 53 57 57 59 67 77 81 80 80 79 74 72 71 69 70 72 75 76 77 78 79 83 85
115 117 120 121 121 120 116 114 109 97 88 78 65 53 41 29 15 6 17 27 36 46 51 51 53 52 50 50 53 61 68 75 84 85 79 76 79 75 71 71 69 68 69 74 76 78 82
116 116 119 120 121 120 116 113 107 96 90 75 61 48 39 27 14 3 11 23 32 43 49 46 48 43 42 43 45 47 56 62 69 74 77 77 79 75 75 74 73 72 73 73 72 72 74
116 118 119 120 120 119 114 111 106 95 88 70 58 45 37 26 15 6 7 20 28 28 37 47 47 42 41 41 39 41 46 56 56 61 71 80 78 77 79 75 75 74 75 73 69 67 67
116 120 120 120 119 117 112 109 105 96 86 68 56 42 34 24 15 11 10 18 20 19 38 47 45 41 39 34 33 33 38 44 53 56 56 60 66 76 79 80 75 73 75 74 70 69 70
116 119 121 120 118 114 111 107 101 94 85 67 52 41 33 22 16 10 13 16 23 33 45 45 39 36 30 25 27 30 32 37 46 54 55 55 57 61 66 69 76 78 72 71 67 64 59
115 117 118 119 115 112 108 105 100 92 83 64 50 40 30 21 15 11 15 21 33 42 43 42 42 35 27 22 23 24 27 33 39 45 45 48 51 54 54 55 58 61 61 56 49 45 47
112 114 115 117 113 109 104 102 97 90 81 61 48 38 33 22 13 13 24 34 37 45 46 41 37 30 23 19 19 20 24 27 30 34 39 40 38 40 38 38 38 37 35 35 39 47 48
109 112 113 114 111 106 100 98 95 88 79 60 46 40 37 28 15 10 17 33 42 51 47 42 36 27 18 15 16 18 21 24 25 26 26 29 30 26 22 25 28 33 37 40 39 38 42
107 109 109 109 107 104 96 93 92 86 78 62 46 40 36 28 15 13 20 31 36 41 40 33 28 21 19 20 21 24 25 26 25 25 24 22 20 21 26 27 27 24 21 20 24 30 38
104 107 107 104 102 100 95 89 87 83 76 63 46 41 36 29 19 17 24 28 31 29 27 23 21 24 25 27 25 22 22 22 22 21 22 22 21 24 23 20 15 14 13 15 19 19 21
102 103 104 97 97 95 91 85 83 77 72 63 48 38 31 23 22 21 22 21 22 21 19 21 28 29 28 26 24 22 21 21 20 21 19 25 28 24 18 14 12 14 13 14 10 4 12
99 100 99 93 91 88 86 81 74 72 65 55 43 32 27 21 15 17 18 19 16 17 23 27 29 29 28 24 21 20 19 19 20 24 27 24 18 16 15 13 13 15 9 2 5 9 15
97 98 93 87 85 82 80 78 69 64 60 50 40 28 16 10 5 9 13 13 14 20 27 30 29 26 22 20 20 20 21 24 24 21 18 16 16 15 16 15 17 13 5 2 3 8 18
94 94 87 80 79 75 76 74 69 57 49 48 39 28 16 3 3 7 9 10 13 21 27 29 29 27 23 19 21 23 23 21 18 13 13 15 14 15 18 22 21 13 6 3 1 11 17
91 87 82 74 72 69 69 71 69 59 49 39 36 29 20 9 6 12 14 13 14 19 25 30 30 28 26 23 22 22 19 17 15 11 15 15 16 18 21 26 20 12 5 7 7 16 19
84 81 76 70 66 64 63 66 65 62 53 41 30 27 23 16 10 15 20 23 21 20 25 30 33 31 29 26 24 23 21 18 16 13 17 14 16 19 25 28 23 17 14 13 8 14 18
77 75 71 65 61 60 60 62 60 58 55 49 37 26 22 17 16 15 23 30 31 28 27 29 32 33 33 30 28 26 23 20 16 17 17 13 17 19 24 27 25 20 20 16 9 14 16
72 69 66 62 56 56 57 60 57 54 52 49 45 33 24 19 17 19 21 30 38 37 31 30 31 34 35 34 32 30 27 23 20 21 16 17 18 19 21 25 28 23 22 18 14 16 18
66 66 61 58 55 52 55 59 57 55 52 48 44 41 32 22 20 18 23 26 36 43 41 37 35 34 35 36 34 32 30 25 24 23 18 19 22 21 25 23 26 23 23 23 19 20 20
Wind_Direction
349 348 348 349 348 348 348 347 344 342 338 335 328 323 317 307 298 283 261 249 239 232 229 228 225 224 225 226 227 226 225 226 224 225 227 229 230 232 233 235 236 236 237 237 240 242 244
347 346 348 347 347 347 348 347 343 341 337 333 328 323 316 307 295 286 268 251 241 234 230 227 226 225 224 225 226 227 226 227 226 226 227 227 227 229 233 234 235 235 237 237 238 240 241
345 345 346 346 346 346 349 346 343 341 336 333 330 322 313 304 295 283 271 253 243 236 230 227 224 226 226 223 225 227 228 226 227 227 226 227 228 229 230 231 233 234 234 233 236 240 242
343 344 346 346 346 345 348 346 344 341 337 334 329 323 314 300 293 281 270 258 241 236 232 226 224 223 225 223 223 227 227 227 226 227 228 229 229 228 230 231 231 233 235 237 240 241 243
342 343 345 346 346 346 349 345 343 341 338 336 332 327 318 305 289 280 263 256 244 234 232 226 223 221 222 223 226 227 225 227 229 229 228 229 231 230 230 230 232 233 235 237 239 241 243
342 342 345 346 346 345 350 346 344 341 340 339 336 329 321 309 295 278 255 247 242 231 230 227 222 219 220 221 223 226 227 227 228 232 233 232 232 232 234 233 233 232 232 235 239 241 243
341 341 345 346 346 345 349 347 345 342 341 341 338 333 325 311 296 275 251 232 234 229 227 228 221 218 218 221 222 224 226 228 230 232 233 236 233 233 233 233 234 235 235 237 239 240 241
341 340 344 347 346 346 349 347 346 343 344 343 340 336 329 316 299 278 248 224 226 226 219 222 218 215 218 220 221 224 224 226 230 232 233 235 235 234 235 235 237 238 239 241 241 244 245
340 339 344 347 347 347 348 348 347 345 346 345 342 340 333 321 301 275 245 224 217 219 213 213 213 215 216 217 218 222 225 227 228 231 234 232 236 236 235 236 238 240 241 242 243 245 247
339 340 344 347 347 347 348 348 348 347 350 347 344 342 337 329 307 271 225 212 210 210 209 211 209 213 214 218 218 220 222 223 227 230 229 231 232 238 239 237 238 240 243 245 246 248 249
339 342 344 346 347 347 348 349 349 350 353 348 347 344 345 342 328 255 220 206 202 202 204 204 205 211 210 215 218 218 222 226 227 230 228 228 227 231 236 238 239 239 242 244 248 250 250
340 342 344 346 346 347 347 349 350 353 355 350 348 350 352 353 1 325 209 198 197 198 200 199 205 205 208 211 214 215 216 221 223 225 225 229 227 228 235 237 239 241 246 248 253 254 253
341 341 344 346 346 347 347 349 351 354 356 351 349 354 357 1 13 25 158 188 194 197 188 192 201 202 206 210 208 211 216 218 221 222 224 228 229 230 232 236 241 244 248 251 255 257 258
341 340 343 345 346 347 346 349 353 355 356 352 351 0 1 8 35 69 137 165 180 175 185 191 198 201 207 209 209 212 217 220 220 221 223 225 230 232 234 237 239 245 250 253 257 259 261
340 340 342 343 345 347 346 349 353 356 356 353 353 4 3 9 36 81 132 151 144 176 183 191 197 204 207 209 211 211 212 216 215 218 222 224 228 230 234 237 240 245 252 255 258 260 259
338 340 341 341 344 345 345 348 354 357 356 355 355 7 5 13 31 62 107 132 153 174 181 185 191 198 204 212 212 210 209 209 211 216 220 227 229 232 236 238 242 246 251 253 256 258 260
336 338 339 339 342 344 345 347 353 357 357 357 359 10 9 11 39 91 125 135 149 167 177 184 194 203 210 212 206 203 200 199 201 206 215 222 227 231 232 236 237 241 248 254 256 259 261
335 336 338 338 340 342 345 347 352 357 358 358 6 14 15 16 31 73 126 146 156 168 177 184 193 198 204 209 197 196 179 174 177 184 188 199 208 214 215 225 232 242 249 255 259 266 269
334 334 337 337 338 341 344 347 351 356 358 1 10 20 20 20 37 87 120 136 147 160 172 179 184 190 169 163 159 159 160 164 170 182 191 203 211 217 225 228 229 231 230 249 266 272 277
332 333 335 337 335 339 342 348 351 355 357 2 10 24 27 34 40 83 112 123 135 148 158 167 171 162 160 159 161 162 166 173 184 194 205 214 211 200 194 191 195 226 251 270 277 285 286
329 331 333 335 334 336 340 347 351 353 356 1 8 26 30 37 65 71 85 106 126 144 156 166 160 160 158 163 168 176 182 190 198 203 197 171 170 169 178 193 209 208 223 228 229 272 345
327 329 331 332 333 334 338 345 352 351 356 359 4 22 33 31 72 99 111 127 136 153 156 159 162 163 167 170 172 177 185 180 173 164 161 166 168 182 196 206 196 200 214 117 23 356 357
324 326 329 331 331 333 335 340 350 352 350 353 360 8 37 37 41 129 135 140 148 157 160 165 168 169 167 167 166 164 161 160 161 163 169 177 186 198 204 185 192 174 156 198 300 2 11
321 323 326 329 328 332 333 337 342 351 353 347 355 354 3 42 231 219 185 177 169 171 172 174 177 172 170 166 166 166 167 168 166 173 183 188 206 201 184 175 167 167 175 190 323 333 342
318 320 322 327 325 329 332 333 336 344 351 350 343 347 339 334 239 226 227 221 204 189 183 182 188 185 179 178 183 180 184 187 190 196 189 199 202 195 185 183 182 187 215 245 307 335 337
316 317 320 324 323 326 330 329 331 337 343 349 343 337 334 317 285 245 225 220 225 215 201 196 195 196 192 190 195 200 202 203 210 212 198 203 197 196 197 194 196 218 236 246 295 327 330
314 314 317 320 322 324 327 325 328 333 336 340 345 336 325 318 289 258 238 231 229 224 219 212 206 202 202 202 205 211 216 216 220 214 208 218 206 199 203 205 212 227 227 237 272 313 311
310 311 314 316 320 322 324 322 325 329 331 334 334 336 324 310 298 273 249 236 233 236 231 226 220 212 210 211 213 221 227 230 227 209 211 205 206 201 202 214 215 223 231 243 278 295 295
307 309 312 313 318 320 320 321 323 325 326 329 329 327 325 311 296 280 266 249 235 233 232 230 227 223 216 216 219 223 229 227 219 204 210 212 211 207 199 204 208 221 233 245 272 280 285
Height
10650 10633 10617 10603 10586 10570 10554 10536 10522 10508 10497 10483 10470 10458 10457 10450 10448 10450 10449 10450 10455 10463 10471 10480 10492 10506 10522 10536 10544 10558 10569 10580 10592 10604 10613 10622 10633 10640 10649 10656 10666 10679 10687 10693 10694 10701 10711
10639 10626 10607 10592 10577 10559 10542 10524 10510 10495 10482 10469 10455 10441 10425 10428 10425 10424 10429 10430 10433 10441 10451 10461 10474 10490 10506 10521 10532 10541 10552 10564 10576 10588 10599 10609 10618 10627 10636 10647 10658 10666 10675 10682 10683 10685 10695
10631 10615 10599 10582 10564 10547 10528 10510 10494 10480 10465 10449 10436 10423 10410 10395 10398 10399 10403 10410 10414 10420 10429 10441 10456 10472 10490 10499 10517 10526 10535 10549 10561 10573 10583 10593 10606 10616 10626 10633 10645 10653 10659 10662 10667 10671 10682
10621 10606 10589 10570 10551 10534 10512 10492 10476 10460 10443 10426 10411 10399 10388 10378 10365 10376 10376 10386 10395 10400 10410 10422 10437 10456 10472 10487 10499 10508 10522 10534 10547 10557 10568 10580 10588 10601 10614 10623 10632 10639 10647 10653 10649 10662 10668
10610 10593 10578 10558 10538 10519 10498 10479 10461 10445 10427 10406 10386 10371 10360 10351 10346 10348 10356 10361 10373 10383 10391 10402 10419 10440 10451 10472 10483 10494 10509 10520 10533 10545 10551 10565 10575 10590 10601 10611 10620 10629 10634 10638 10641 10650 10658
10602 10584 10567 10547 10525 10505 10484 10463 10443 10425 10406 10386 10368 10353 10340 10331 10327 10327 10336 10341 10351 10366 10373 10385 10402 10421 10438 10453 10464 10479 10493 10507 10518 10529 10539 10553 10564 10579 10588 10598 10604 10605 10619 10629 10633 10639 10647
10595 10574 10558 10537 10514 10492 10472 10450 10429 10408 10388 10367 10350 10337 10325 10316 10311 10311 10316 10323 10330 10345 10358 10381 10398 10410 10420 10432 10449 10465 10480 10492 10506 10517 10531 10539 10555 10567 10569 10576 10585 10599 10610 10617 10619 10624 10633
10587 10566 10547 10527 10504 10481 10460 10440 10419 10394 10373 10352 10336 10323 10311 10301 10296 10296 10300 10306 10315 10332 10350 10366 10381 10395 10405 10421 10437 10452 10470 10483 10496 10506 10517 10531 10542 10548 10551 10566 10577 10588 10594 10597 10603 10610 10622
10580 10559 10540 10518 10495 10470 10450 10430 10411 10385 10360 10339 10323 10310 10298 10290 10285 10284 10289 10298 10306 10320 10339 10355 10370 10384 10395 10410 10424 10440 10456 10469 10481 10495 10508 10518 10525 10534 10544 10557 10564 10572 10580 10585 10593 10597 10603
10572 10550 10532 10510 10487 10462 10441 10421 10402 10380 10351 10332 10316 10302 10290 10281 10278 10277 10279 10287 10297 10312 10329 10346 10365 10374 10392 10405 10416 10429 10444 10459 10473 10486 10497 10507 10519 10526 10535 10544 10550 10560 10568 10572 10577 10580 10591
10568 10544 10525 10505 10482 10457 10435 10413 10394 10371 10347 10329 10312 10298 10286 10276 10272 10272 10276 10283 10293 10307 10323 10341 10356 10369 10387 10400 10410 10422 10435 10447 10459 10473 10484 10490 10504 10514 10523 10529 10541 10548 10553 10555 10563 10569 10576
10560 10539 10519 10501 10477 10452 10430 10409 10390 10368 10344 10327 10312 10298 10286 10277 10272 10271 10276 10283 10291 10304 10319 10340 10355 10374 10387 10395 10405 10415 10427 10434 10446 10461 10472 10483 10495 10504 10511 10520 10529 10536 10540 10545 10552 10557 10565
10555 10533 10514 10495 10472 10450 10428 10408 10386 10366 10346 10331 10314 10301 10289 10281 10276 10274 10281 10286 10295 10305 10325 10343 10357 10372 10381 10390 10402 10410 10417 10427 10440 10449 10461 10470 10480 10490 10502 10512 10520 10525 10528 10534 10540 10544 10550
10550 10525 10508 10490 10470 10450 10426 10408 10387 10367 10350 10333 10318 10304 10294 10288 10282 10281 10285 10290 10299 10314 10332 10345 10358 10369 10380 10392 10402 10409 10416 10424 10434 10445 10454 10461 10474 10484 10494 10501 10510 10515 10517 10522 10529 10531 10534
10545 10521 10502 10486 10469 10450 10426 10409 10390 10370 10353 10338 10320 10309 10300 10296 10290 10288 10290 10294 10305 10321 10334 10350 10364 10373 10384 10393 10400 10406 10412 10419 10428 10436 10446 10457 10464 10476 10485 10491 10499 10502 10506 10512 10515 10519 10522
10540 10521 10501 10482 10468 10450 10428 10409 10392 10375 10358 10342 10324 10315 10308 10301 10297 10295 10298 10302 10309 10324 10338 10352 10363 10374 10383 10390 10395 10402 10408 10415 10421 10432 10444 10451 10459 10468 10475 10483 10490 10495 10498 10502 10504 10508 10507
10538 10520 10500 10480 10467 10452 10431 10410 10394 10379 10363 10348 10328 10320 10312 10307 10304 10304 10304 10310 10318 10332 10344 10356 10367 10376 10384 10390 10394 10399 10405 10413 10421 10430 10439 10447 10455 10461 10470 10478 10482 10485 10489 10493 10493 10492 10495
10534 10516 10500 10479 10464 10451 10435 10412 10396 10382 10369 10354 10338 10325 10318 10314 10313 10313 10314 10316 10325 10334 10349 10360 10370 10380 10386 10390 10395 10401 10407 10414 10421 10429 10437 10443 10449 10458 10466 10470 10474 10477 10480 10482 10482 10483 10479
10531 10514 10500 10478 10461 10451 10437 10416 10397 10386 10372 10359 10346 10337 10330 10327 10325 10324 10325 10328 10336 10347 10357 10367 10376 10381 10385 10391 10399 10405 10410 10416 10422 10429 10436 10442 10449 10455 10459 10462 10466 10470 10472 10475 10475 10473 10470
10527 10512 10498 10480 10460 10448 10438 10420 10402 10388 10375 10364 10354 10346 10342 10340 10337 10337 10339 10343 10350 10358 10366 10372 10376 10382 10388 10393 10400 10407 10412 10418 10423 10429 10435 10439 10445 10449 10454 10457 10461 10464 10467 10468 10468 10468 10464
10524 10510 10495 10481 10460 10449 10437 10426 10406 10395 10381 10371 10362 10356 10354 10352 10351 10351 10351 10355 10360 10365 10371 10375 10380 10386 10390 10396 10402 10408 10413 10418 10423 10427 10432 10437 10441 10447 10450 10454 10458 10461 10464 10466 10466 10464 10460
10520 10507 10494 10478 10462 10448 10435 10430 10420 10398 10392 10379 10373 10365 10364 10365 10364 10364 10365 10366 10369 10372 10375 10380 10384 10387 10391 10396 10403 10408 10412 10416 10421 10427 10432 10436 10441 10444 10447 10450 10454 10457 10459 10460 10460 10458 10455
10513 10502 10491 10476 10461 10447 10436 10427 10425 10408 10393 10391 10381 10375 10371 10371 10372 10369 10369 10370 10372 10375 10377 10382 10386 10390 10396 10400 10404 10409 10413 10418 10423 10428 10432 10435 10438 10441 10444 10447 10451 10454 10455 10456 10456 10454 10451
10505 10495 10485 10474 10457 10447 10431 10425 10420 10417 10404 10389 10386 10379 10374 10373 10374 10374 10373 10374 10375 10376 10379 10384 10388 10393 10397 10402 10406 10411 10415 10420 10424 10427 10430 10432 10434 10438 10441 10445 10448 10449 10451 10452 10451 10449 10447
10497 10486 10476 10470 10455 10444 10431 10420 10412 10412 10406 10397 10386 10381 10376 10372 10371 10373 10375 10376 10376 10377 10379 10383 10388 10393 10397 10402 10406 10411 10415 10420 10423 10425 10427 10430 10432 10434 10438 10442 10444 10446 10447 10448 10446 10445 10443
10489 10475 10467 10461 10451 10440 10430 10419 10409 10403 10401 10400 10391 10383 10375 10372 10370 10370 10371 10373 10375 10377 10379 10382 10384 10390 10395 10400 10404 10409 10414 10418 10421 10423 10425 10427 10430 10432 10435 10438 10441 10442 10444 10444 10443 10442 10439
10477 10466 10459 10453 10444 10433 10423 10415 10407 10398 10392 10388 10387 10384 10378 10372 10367 10365 10366 10368 10369 10373 10377 10381 10383 10386 10391 10396 10401 10406 10411 10414 10418 10420 10423 10424 10426 10429 10432 10434 10437 10438 10439 10440 10440 10439 10436
10465 10457 10450 10442 10436 10425 10416 10408 10402 10395 10388 10382 10377 10376 10374 10369 10364 10362 10361 10362 10365 10368 10372 10376 10380 10382 10386 10391 10396 10401 10406 10411 10414 10416 10419 10421 10424 10425 10428 10430 10433 10434 10436 10437 10436 10434 10432
10453 10445 10441 10432 10426 10418 10408 10400 10393 10387 10380 10374 10371 10366 10365 10364 10360 10356 10354 10354 10356 10359 10366 10370 10374 10378 10381 10385 10390 10395 10400 10405 10408 10412 10415 10417 10420 10422 10424 10427 10429 10430 10431 10432 10432 10429 10429